If you wish to contribute or participate in the discussions about articles you are invited to join SKYbrary as a registered user

 Actions

Comandante Espora Airport

From SKYbrary Wiki

SAZB
Airport
ICAO: SAZB – IATA: BHI
Summary
Name Comandante Espora Airport
Region South America and Caribbean
Territory Argentina AR.gif
Location Bahia Blanca, Buenos Aires
Serving Bahia Blanca
Elevation 74.981 m
246 ft
246 ft74.981 m
Type medium airport
Coordinates 38° 43' 29.88" S, 62° 10' 9.54" W
Runways
Designator Length Width Surface ROPS
'16L'/'34R' 2615 m8,579.396 ft
60 m196.85 ft
ASP /
'16R'/'34L' 1498 m4,914.698 ft
30 m98.425 ft
ASP /
6/24 2030 m6,660.105 ft
33 m108.268 ft
ASP yes/yes


METAR
Observation SAZB 051325Z 23006KT 7000 -TSRA SCT008 FEW040CB BKN050 09/09 Q1014 RMK CB OBS TO E
Station Bahia Blanca Aerodrome
Date/Time 05 August 2020 13:25:00
Wind direction 230°
Wind speed 06 kts
Lowest cloud amount scattered clouds
Temperature 9°C
Dew point 9°C
Humidity 100%
QNH 1014 hPa
Weather condition n/a

Domestic airport serving Bahia Blanca, Argentina.

Climatology

Warm, oceanic climate (Köppen climate classification Cfa).

Maps

Terrain

Loading map...

Airport Layout

Loading map...


Accidents & Serious Incidents at or in vicinity of SAZB

None on SKYbrary